RH
60 57 60 59 53 55 58 53 51 64 64 64 64 64 65 67 68 68 66 65 64 63 63 62 66 67 66
57 52 53 50 48 53 54 54 56 60 65 64 63 69 69 70 70 68 70 72 73 72 68 65 65 68 68
66 60 58 54 54 49 50 57 45 61 64 58 64 62 57 59 60 65 68 70 69 69 79 75 69 71 71
60 60 63 60 64 63 58 55 55 50 52 52 63 62 60 62 63 66 70 73 72 71 70 75 77 76 76
60 62 61 63 66 64 71 63 60 59 55 52 54 55 54 59 59 63 66 68 69 70 71 72 76 77 76
66 62 59 64 66 69 72 76 73 52 63 61 59 63 54 52 59 62 66 66 65 66 68 71 77 82 81
70 62 66 61 69 74 71 73 73 62 66 68 53 59 54 46 62 68 66 64 70 72 70 71 77 83 83
66 69 68 69 75 72 73 71 63 58 56 73 56 57 54 56 66 62 66 65 64 64 67 72 77 82 84
66 68 68 67 68 70 73 73 74 64 57 71 63 64 62 59 53 59 62 65 67 69 66 66 71 78 76
68 67 67 68 70 67 74 85 84 83 60 79 82 80 81 60 59 56 60 65 68 69 70 69 69 72 78
66 63 64 65 68 69 73 82 89 88 72 82 90 90 93 90 69 65 63 62 61 66 70 70 73 77 88
77 76 78 79 78 78 78 80 81 85 78 78 95 93 94 91 84 73 68 67 67 71 70 73 76 75 76
82 83 83 84 87 90 86 87 94 87 72 86 94 92 92 94 91 86 81 76 71 82 79 82 82 82 98
83 82 83 86 86 86 92 87 91 88 77 85 89 89 94 92 93 87 83 92 84 85 88 82 88 96 95
84 85 83 82 83 85 91 92 93 86 85 85 86 88 91 93 93 88 90 86 86 97 93 95 98 99 98
83 85 88 86 86 87 90 94 93 88 87 87 89 92 87 82 75 94 90 87 90 96 99 98 98 99 100
86 88 85 86 85 90 90 92 92 87 82 88 93 95 95 92 72 69 91 88 89 94 98 98 98 96 95
Wind_Speed
6 9 8 10 10 9 9 9 8 13 16 18 20 21 21 21 21 21 22 22 23 22 20 20 19 18 17
8 9 11 12 12 11 8 7 7 9 15 16 18 17 17 18 20 21 21 21 22 23 21 20 20 19 18
7 7 8 9 11 11 11 11 8 11 13 16 13 16 20 20 20 20 20 21 21 21 20 21 21 20 19
7 7 7 9 8 9 10 9 10 11 12 12 15 17 19 21 21 20 20 19 21 21 21 19 19 20 21
7 7 8 8 10 9 10 10 11 10 10 9 10 10 11 15 15 18 21 22 22 22 22 22 21 20 21
7 9 10 9 8 9 9 9 9 7 8 11 10 11 11 10 18 22 22 24 23 23 23 24 22 20 20
10 9 10 10 10 11 11 11 11 10 10 11 10 11 11 12 20 21 24 23 22 20 23 24 23 20 20
8 10 10 10 10 10 11 12 11 10 9 11 11 11 11 11 19 23 20 19 22 24 24 24 22 21 18
14 16 17 17 14 9 9 10 10 11 9 9 10 11 10 12 11 18 19 20 22 25 25 24 24 23 13
9 11 11 11 14 8 8 8 9 10 7 8 10 10 9 10 9 10 11 19 22 23 26 26 24 11 10
8 8 8 8 7 6 7 7 8 9 10 8 7 8 7 9 10 9 10 11 11 14 22 23 22 20 8
6 6 7 7 7 7 9 9 7 11 12 11 6 9 10 11 12 8 9 10 9 12 12 16 21 23 21
7 7 6 7 8 7 8 8 7 9 8 10 8 10 9 10 12 10 12 10 11 10 11 10 10 9 3
8 7 6 6 8 7 7 8 8 8 10 9 9 9 9 9 9 11 10 9 11 10 11 10 8 6 5
7 8 8 8 8 7 7 7 8 9 10 8 8 8 9 12 10 10 10 10 10 10 11 8 4 2 2
8 8 9 8 9 8 7 7 8 9 9 8 9 9 7 7 12 9 8 9 9 9 7 5 1 3 4
7 7 8 9 12 9 8 8 8 9 10 8 8 8 9 9 7 9 7 7 8 8 5 3 2 5 4
Wind_Direction
310 323 323 325 322 321 316 317 319 321 329 328 325 321 317 317 316 311 307 303 300 297 296 297 295 297 298
309 319 325 327 329 322 321 313 314 308 317 323 325 329 330 334 328 324 318 316 310 296 291 292 291 288 288
305 310 313 319 326 321 324 318 316 318 313 317 320 324 323 319 319 319 319 314 313 308 291 286 286 282 279
308 308 306 311 305 309 315 316 317 319 313 311 309 313 312 312 316 316 314 313 312 308 303 295 284 277 274
311 314 310 310 311 313 307 312 312 310 309 313 313 310 306 303 303 309 311 311 309 307 303 299 291 276 269
306 308 311 310 306 308 309 310 310 300 304 304 303 300 299 298 302 304 308 309 307 306 304 300 294 281 270
291 298 303 307 307 306 308 307 302 300 298 294 293 290 299 302 303 303 305 305 309 314 314 307 293 281 270
284 281 278 283 283 295 301 298 294 293 304 291 297 294 302 300 298 300 299 307 313 313 312 307 300 281 267
294 296 297 305 315 311 301 305 302 299 307 287 293 301 300 293 290 288 294 302 306 306 306 308 303 293 270
304 309 316 311 311 295 293 289 292 293 310 294 293 302 299 297 293 296 296 295 304 302 302 300 294 291 253
307 302 302 301 301 300 291 283 288 285 298 312 306 301 291 302 292 297 297 298 300 294 296 297 292 291 236
300 302 307 305 303 302 298 288 276 276 291 289 274 283 289 290 295 298 298 295 299 296 295 291 289 290 258
299 298 294 291 296 290 291 292 282 282 279 276 272 280 280 286 291 292 298 306 303 290 297 288 292 287 279
291 293 295 299 299 299 300 303 294 294 290 279 285 289 288 283 290 298 298 294 301 298 296 285 281 271 207
304 304 301 300 296 298 290 295 291 299 299 297 293 288 276 277 285 277 286 297 300 309 304 283 272 282 150
305 304 301 299 298 295 286 287 297 294 294 296 303 310 297 282 255 273 283 297 306 313 320 276 106 37 65
296 292 295 299 307 296 293 290 290 289 285 286 292 293 299 305 297 282 292 298 309 311 339 347 357 58 57